Weather History for Andalusia, AL

Change the Weather History Date:

Friday, April 5, 2013

  Actual Average (KCEW) Record (KCEW)
Temperature  
Mean Temperature 58 °F -  
Max Temperature 66 °F 76 °F 86 °F (1999)
Min Temperature 51 °F 53 °F 34 °F (2004)
Degree Days  
Heating Degree Days 6    
Growing Degree Days 8 (Base 50)    
Moisture  
Dew Point 47 °F    
Average Humidity 75    
Maximum Humidity 88    
Minimum Humidity 44    
Precipitation  
Precipitation 0.03 in - - ()
Sea Level Pressure  
Sea Level Pressure 29.99 in    
Wind  
Wind Speed 7 mph (NNE)    
Max Wind Speed 14 mph    
Max Gust Speed 21 mph    
Visibility 7 miles    
Events Rain    
Averages and records for this station are not official NWS values.
T = Trace of Precipitation, MM = Missing Value Source: NWS Daily Summary

Daily Weather History Graph

Daily Weather History Graph

Search for Another Location

Airport:

Trip Planner

Search our weather history database for the weather conditions in past years. The results will help you decide how hot, cold, wet, or windy it might be!

Date:

Astronomy

Apr. 05, 2013 Rise Set
Actual Time 6:29 AM CDT 7:07 PM CDT
Civil Twilight 6:04 AM CDT 7:32 PM CDT
Nautical Twilight 5:35 AM CDT 8:01 PM CDT
Astronomical Twilight 5:06 AM CDT 8:30 PM CDT
Moon 3:18 AM CDT (4/5) 2:47 PM CDT (4/5)
Length of Visible Light 13h 27m
Length of Day
12h 38m
Waning Crescent, 23% of the Moon is Illuminated
Apr 5
Waning Crescent
Apr 10
New
Apr 18
First Quarter
Apr 25
Full
May 2
Last Quarter

Hourly Weather History & Observations

Time (CDT) Temp. Dew Point Humidity Pressure Visibility Wind Dir Wind Speed Gust Speed Precip Events Conditions
12:11 AM 55.4 °F 51.8 °F 88% 29.91 in 3.0 mi East 4.6 mph - N/A   Overcast
12:14 AM 55.4 °F 51.8 °F 88% 29.90 in 2.5 mi East 4.6 mph - N/A   Overcast
12:28 AM 55.4 °F 51.8 °F 88% 29.90 in 2.5 mi Variable 3.5 mph - N/A   Haze
12:38 AM 55.4 °F 51.8 °F 88% 29.91 in 3.0 mi NNE 5.8 mph - N/A   Haze
12:56 AM 55.9 °F 51.1 °F 84% 29.91 in 4.0 mi NNE 5.8 mph - N/A   Haze
1:26 AM 55.4 °F 51.8 °F 88% 29.92 in 4.0 mi NNE 4.6 mph - N/A   Overcast
1:56 AM 55.0 °F 50.0 °F 83% 29.91 in 4.0 mi NNE 6.9 mph - N/A   Haze
2:03 AM 55.4 °F 50.0 °F 82% 29.91 in 2.5 mi NNE 8.1 mph - N/A   Haze
2:23 AM 55.4 °F 50.0 °F 82% 29.92 in 3.0 mi NNE 4.6 mph - N/A   Haze
2:52 AM 55.4 °F 50.0 °F 82% 29.91 in 2.5 mi NNE 5.8 mph - N/A   Haze
2:56 AM 55.0 °F 50.0 °F 83% 29.91 in 2.5 mi NE 4.6 mph - N/A   Haze
3:20 AM 53.6 °F 48.2 °F 82% 29.92 in 3.0 mi NNE 5.8 mph - N/A   Haze
3:31 AM 53.6 °F 50.0 °F 88% 29.92 in 2.5 mi North 5.8 mph - N/A   Overcast
3:44 AM 53.6 °F 48.2 °F 82% 29.93 in 3.0 mi NNE 8.1 mph - N/A   Haze
3:56 AM 54.0 °F 48.9 °F 83% 29.91 in 4.0 mi NNE 5.8 mph - N/A   Haze
4:32 AM 53.6 °F 48.2 °F 82% 29.94 in 9.0 mi North 4.6 mph - N/A   Overcast
4:56 AM 53.1 °F 48.0 °F 83% 29.94 in 7.0 mi NNE 10.4 mph - N/A   Overcast
5:56 AM 53.1 °F 48.0 °F 83% 29.95 in 5.0 mi North 6.9 mph - 0.01 in Rain Light Rain
6:40 AM 53.6 °F 46.4 °F 77% 29.98 in 8.0 mi North 10.4 mph - 0.01 in Rain Light Rain
6:56 AM 52.0 °F 46.9 °F 83% 29.98 in 10.0 mi North 8.1 mph - 0.02 in   Overcast
7:14 AM 51.8 °F 46.4 °F 82% 29.99 in 10.0 mi North 10.4 mph - N/A   Overcast
7:27 AM 51.8 °F 46.4 °F 82% 30.00 in 10.0 mi North 6.9 mph 17.3 mph N/A   Overcast
7:41 AM 51.8 °F 46.4 °F 82% 30.01 in 10.0 mi NNE 13.8 mph - N/A   Overcast
7:56 AM 52.0 °F 46.0 °F 80% 30.01 in 10.0 mi NNE 10.4 mph - N/A   Overcast
8:29 AM 51.8 °F 46.4 °F 82% 30.02 in 10.0 mi NNE 10.4 mph - N/A   Overcast
8:43 AM 51.8 °F 44.6 °F 76% 30.03 in 10.0 mi NNE 10.4 mph 20.7 mph N/A   Overcast
8:56 AM 52.0 °F 45.0 °F 77% 30.02 in 10.0 mi North 11.5 mph - N/A   Overcast
9:56 AM 52.0 °F 44.1 °F 74% 30.05 in 10.0 mi NNE 10.4 mph 19.6 mph N/A   Overcast
10:56 AM 52.0 °F 44.1 °F 74% 30.07 in 9.0 mi NE 9.2 mph - N/A   Overcast
11:56 AM 54.0 °F 44.1 °F 69% 30.06 in 10.0 mi North 10.4 mph - N/A   Overcast
12:12 PM 55.4 °F 44.6 °F 67% 30.06 in 10.0 mi NNE 9.2 mph - N/A   Overcast
12:56 PM 57.0 °F 45.0 °F 64% 30.05 in 10.0 mi NNE 12.7 mph 18.4 mph N/A   Overcast
1:56 PM 59.0 °F 44.1 °F 58% 30.04 in 10.0 mi NNE 10.4 mph - N/A   Overcast
2:52 PM 62.6 °F 44.6 °F 52% 30.03 in 10.0 mi NNE 12.7 mph 18.4 mph N/A   Overcast
2:56 PM 62.1 °F 44.1 °F 52% 30.02 in 10.0 mi NE 12.7 mph 18.4 mph N/A   Overcast
3:56 PM 64.0 °F 44.1 °F 48% 30.01 in 10.0 mi North 10.4 mph 18.4 mph N/A   Scattered Clouds
4:56 PM 66.9 °F 44.1 °F 44% 30.00 in 10.0 mi North 11.5 mph - N/A   Partly Cloudy
5:56 PM 66.9 °F 44.1 °F 44% 30.01 in 10.0 mi NE 5.8 mph - N/A   Clear
6:56 PM 64.0 °F 45.0 °F 50% 30.02 in 10.0 mi NNE 3.5 mph - N/A   Clear
7:56 PM 57.0 °F 46.9 °F 69% 30.05 in 10.0 mi Calm Calm - N/A   Clear
8:56 PM 54.0 °F 46.0 °F 75% 30.06 in 10.0 mi Calm Calm - N/A   Clear
9:56 PM 53.1 °F 46.0 °F 77% 30.08 in 10.0 mi NW 3.5 mph - N/A   Clear
10:56 PM 53.1 °F 45.0 °F 74% 30.09 in 10.0 mi NW 3.5 mph - N/A   Clear
11:56 PM 52.0 °F 44.1 °F 74% 30.09 in 10.0 mi North 3.5 mph - N/A   Clear